Location: ?ern� Novina
(50.6762°N, 14.8696°E)
Time: 15:52:24
(UTC+00:00)

Cosmos 1610 Rocket - Pass Details

Date: 03 March 2021
Orbit: 953 x 1002 km, 82.9° (Epoch: 12 April)

Event Time Altitude Azimuth Distance (km) Brightness Sun altitude
Rises 17:38:38 0° 178° (S) 3,638 7.5 -9.2°
Reaches altitude 10° 17:41:08 10° 175° (S) 2,702 6.8 -9.6°
Maximum altitude 17:47:15 67° 95° (E) 1,054 4.5 -10.6°
Drops below altitude 10° 17:53:30 10° 14° (NNE) 2,754 6.8 -11.6°
Sets 17:56:04 0° 12° (NNE) 3,714 7.5 -12.0°
